Lid_Strength_Index
2 2 1 1 1 2 2 1 1 1 1 1 2 1 1 1 0 0 -0 -0 -0 -0 -0 -0 -0 -0 2 6 6 2 -2 -1 2 1 4 5 5 7 8 8 7 8 8 7 7 6 6
1 1 1 2 1 1 2 2 1 1 1 1 1 1 1 0 0 -0 -0 -0 -0 -0 -0 -0 -0 -0 4 9 2 2 2 3 3 2 3 5 4 5 6 7 8 7 7 7 7 7 7
0 0 0 1 1 1 1 1 1 1 1 1 1 1 0 0 -0 -0 -0 -1 -1 -1 -1 -1 -1 1 5 6 2 2 3 3 3 3 3 3 4 6 5 8 7 8 9 9 8 7 8
0 0 0 0 0 0 0 1 2 1 2 1 1 1 0 -0 -0 0 0 0 -1 -1 -1 -1 -1 1 6 1 1 2 2 3 2 3 3 1 3 5 7 6 7 9 9 12 9 8 8
-0 0 0 -0 -0 0 1 1 1 1 1 2 1 0 0 0 0 0 -0 -0 -0 -1 -2 -1 1 3 7 -1 2 1 2 3 3 4 4 2 3 7 6 9 11 11 14 13 11 8 8
-0 0 0 -0 -0 0 1 1 1 1 2 2 1 0 1 0 0 -0 -0 -0 -0 -1 -0 -0 1 6 4 5 2 2 1 2 4 4 5 6 6 9 9 11 16 14 14 12 13 10 9
-0 -0 -0 -0 -0 0 1 1 1 1 2 2 1 -0 0 0 0 -0 2 4 6 5 3 6 5 6 4 3 2 3 2 4 4 6 9 7 10 13 11 10 10 10 11 12 11 9 10
-0 -0 -0 -0 0 0 1 1 1 1 2 1 1 0 -0 0 -0 -0 2 4 4 4 8 4 4 4 3 2 5 4 3 6 7 9 8 9 12 9 8 8 9 10 12 13 10 10 11
-0 -0 -0 -0 -0 0 1 2 2 2 1 2 2 0 -0 -0 -0 2 4 3 2 2 8 6 4 5 4 3 6 5 4 6 7 9 9 12 9 7 9 9 11 11 12 13 13 10 11
-0 -0 -0 -0 -0 -0 1 1 2 2 1 1 1 0 0 -0 3 3 3 1 2 2 12 9 6 5 3 4 7 3 3 5 7 9 9 10 8 9 10 10 9 13 9 9 11 13 16
-0 -0 -0 -0 -0 -0 0 1 1 2 1 1 1 0 0 0 4 4 2 2 3 4 18 7 6 2 4 6 6 5 2 5 8 9 9 11 10 10 11 10 9 11 8 10 11 13 15
-0 -0 -0 -0 0 0 -0 -0 1 1 1 1 1 0 -0 2 3 3 2 2 4 13 18 9 6 7 7 6 6 4 5 4 5 8 8 9 7 8 9 9 8 9 10 11 13 15 18
-0 0 0 -0 0 0 0 -0 0 1 1 1 1 0 1 1 4 2 2 6 13 17 8 10 9 7 8 9 8 7 8 9 11 14 13 10 9 8 7 10 9 10 13 17 18 19 19
-0 0 0 0 0 0 0 0 -0 0 0 1 1 1 0 1 2 2 5 9 18 10 11 7 9 8 11 9 9 8 9 10 9 9 13 13 14 10 8 10 12 12 13 17 20 19 17
-0 -0 0 0 0 0 1 1 0 0 -0 0 1 4 3 2 1 3 8 14 14 11 8 9 9 11 12 10 9 9 10 10 10 9 13 14 14 10 9 9 10 12 14 12 16 16 18
-0 -0 0 0 1 1 1 1 1 0 -0 0 5 5 5 1 2 5 10 12 10 8 7 8 12 11 13 12 11 10 11 9 9 9 10 11 15 11 10 10 11 12 11 16 16 20 20
2 1 -0 0 1 1 1 1 1 1 -0 1 5 8 5 2 3 7 12 11 8 7 7 8 10 11 11 12 11 11 11 9 10 10 10 11 12 14 12 13 13 14 14 14 14 15 18
3 2 1 0 1 1 1 1 1 1 1 3 7 10 5 4 9 9 11 8 7 7 7 8 8 8 10 10 11 11 10 9 9 9 12 11 13 16 14 13 12 13 13 13 16 17 16
3 3 2 0 1 1 1 2 1 2 2 4 8 9 6 6 12 11 10 9 8 8 8 9 9 7 8 9 11 10 10 8 9 10 11 12 14 18 17 15 13 14 12 11 12 14 16
3 3 3 2 2 1 1 2 1 2 2 4 9 11 9 9 10 11 10 11 10 8 9 9 10 9 10 10 8 10 10 8 8 7 7 9 12 14 15 14 13 15 13 12 13 17 17
3 3 3 3 2 1 1 2 2 2 2 4 9 11 9 12 11 11 11 10 11 10 9 10 11 10 10 12 10 10 10 10 9 7 9 11 14 14 13 13 13 13 12 13 14 15 16
4 3 3 3 2 2 1 2 2 2 2 6 10 9 8 9 9 11 11 11 10 9 10 10 11 10 11 12 12 12 10 11 12 11 12 11 14 14 14 12 12 13 12 13 13 13 14
4 3 3 3 3 2 2 1 2 2 3 7 8 7 9 9 10 11 11 10 9 9 9 10 11 11 11 10 11 11 11 10 10 11 12 13 14 14 16 13 13 15 13 13 13 12 12
4 3 3 3 3 2 2 1 2 2 3 6 6 6 10 11 10 9 8 8 9 10 10 10 11 12 9 9 9 11 11 11 11 11 11 13 13 14 17 14 19 14 12 11 12 11 11
4 4 3 3 3 3 2 2 1 1 2 5 5 7 9 12 9 8 8 8 9 10 11 10 10 10 9 10 12 14 13 13 12 12 12 12 13 15 17 17 14 14 13 13 14 14 11
4 4 4 3 3 3 2 2 2 1 2 5 5 5 6 10 11 7 9 9 11 13 12 11 10 9 9 11 12 16 16 14 15 14 12 12 13 14 16 19 20 14 12 11 12 18 11
3 3 4 3 3 3 2 2 2 2 2 4 5 4 6 9 7 7 9 10 9 11 13 13 12 11 11 13 14 15 14 12 15 15 16 15 16 17 17 20 16 12 12 10 18 17 11
3 3 3 3 3 2 2 2 2 2 2 3 4 3 5 7 7 5 6 9 9 10 13 12 12 12 13 15 14 13 15 13 14 14 15 16 18 18 17 19 19 11 12 15 13 11 10
3 3 3 2 2 2 2 2 2 2 3 2 5 3 3 5 6 5 6 6 6 7 10 11 11 11 11 14 13 11 13 13 14 16 12 16 13 15 15 15 11 11 11 10 9 10 11